Weather in Ishnya

Russia / Yaroslavl Oblast     57°11′32″N   39°21′22″E
temp.,
°C
wind,
m/s
gust,
m/s
humid.,
%
clouds,
%
prec.,
mm/h
press.,
hPa
HPBL,
m
20 may, fri
fri2000:00+1nw410815 0.0 1015216
03:000nnw410914 0.0 1017292
06:00+2nnw49825 0.0 1018452
09:00+6nne456438 0.0 10191100
12:00+9n344890 0.1 10182033
15:00+10n454293 0.1 10172074
18:00+9n44556 0.0 10171696
21:00+4nnw22680 0.0 101818
21 may, sat
sat2100:00+2n22785 0.0 101711
03:000nne12865 0.0 101610
06:00+2ne22795 0.0 1016137
09:00+7ne33645 0.0 1015887
12:00+9ne335187 0.0 10131644
15:00+11ene444778 0.0 10111789
18:00+10ene335678 0.0 10111674
21:00+4ene227344 0.0 101119
22 may, sun
sun2200:00+2ene22845 0.0 101021
03:00+1nne33915 0.0 101039
06:00+3nne35760 0.0 1009187
09:00+7nne56511 0.0 10081288
12:00+10nne564323 0.0 10071950
15:00+11nne5742100 0.0 10062220
18:00+10nnw575499 0.0 10061068
21:00+5nw486548 0.0 1006122
23 may, mon
mon2300:00+2nnw367746 0.0 100697
03:00+1nw35825 0.0 100684
06:00+4nw5117666 0.0 1006330
09:00+8nnw71051100 0.0 10051429
12:00+10nnw7947100 0.0 10051664
15:00+11nnw71046100 0.0 10051790
18:00+9nnw61149100 0.0 1005844
21:00+6nnw3359100 0.0 100658
24 may, tue
tue2400:00+6nw51259100 0.0 1006438
03:00+5nw51158100 0.0 1007455
06:00+6nnw51066100 0.0 1008784
09:00+8nnw7956100 0.0 10091275
12:00+8n6866100 0.0 10111416
15:00+8n5768100 0.1 10121263
18:00+8nne3671100 0.0 1014988
21:00+6nne247494 0.0 1016103